This demonstration page uses our WeatherBlox Daily Observations layout. Learn more.

Left ArrowRight Arrow

41.12389, -100.76542

Hourly Observations for November 5, 2015

Temp ( °F °C ) Dew Point ( °F °C ) Humidity (%) Winds ( mph kmh ) Pressure ( in mb ) Visibility ( mi km ) Precip ( " mm )
12:04 am 00:04 Partly Cloudy 45 7 43 6 93 93 NE 9 15 29.71 1006 10 16 0.00 0.00
12:12 am 00:12 Mostly Cloudy 45 7 43 6 93 93 NNE 10 17 29.71 1006 10 16 0.00 0.00
12:53 am 00:53 Cloudy 44 6.7 41 5 89 89 ENE 5 7 29.67 1005 10 16 0.00 0.00
1:53 am 01:53 Cloudy 44 6.7 41 5 89 89 N 5 7 29.68 1005 10 16 0.00 0.00
2:53 am 02:53 Cloudy 44 6.7 41 5 89 89 NW 10 17 29.69 1006 10 16 0.00 0.00
3:28 am 03:28 Cloudy 44 6.7 41 5 89 89 NNW 8 13 29.74 1007 10 16 0.00 0.00
3:53 am 03:53 Cloudy 44 6.7 41 5 89 89 N 14 22 29.65 1004 10 16 0.00 0.00
4:08 am 04:08 Cloudy 45 7 41 5 87 87 N 12 19 29.71 1006 10 16 0.00 0.00
4:53 am 04:53 Cloudy 44 6.7 40 4.4 85 85 N 8 13 29.66 1005 10 16 0.00 0.00
5:53 am 05:53 Cloudy 44 6.7 40 4.4 85 85 NE 12 19 29.67 1005 10 16 0.00 0.00
6:28 am 06:28 Cloudy 45 7 39 4 81 81 NW 6 9 29.77 1008 10 16 0.00 0.00
6:53 am 06:53 Cloudy with Light Rain 43 6.1 39 3.9 86 86 NNW 12 19 29.75 1007 10 16 0.00 0.03
7:46 am 07:46 Cloudy with Light Rain 43 6 39 4 87 87 NNW 8 13 29.83 1010 10 16 0.00 0.00
7:53 am 07:53 Cloudy with Light Rain 42 5.6 40 4.4 92 92 NW 9 15 29.79 1009 10 16 0.05 1.27
8:16 am 08:16 Cloudy with Light Rain 43 6 37 3 81 81 NW 20 31 29.85 1011 10 16 0.00 0.00
8:21 am 08:21 Cloudy with Light Rain 41 5 38 3.3 89 89 NW 16 26 29.85 1011 10 16 0.01 0.25
8:39 am 08:39 Cloudy with Light Rain 40 4.4 37 2.8 89 89 NNW 14 22 29.88 1012 10 16 0.01 0.25
8:53 am 08:53 Cloudy with Light Rain 40 4.4 37 2.8 89 89 NNW 15 24 29.84 1011 10 16 0.01 0.25
9:53 am 09:53 Cloudy with Light Rain 40 4.4 36 2.2 86 86 NNW 13 20 29.89 1012 10 16 0.00 0.03
10:26 am 10:26 Cloudy with Light Rain 41 5 37 3 87 87 NNW 12 19 29.91 1013 10 16 0.00 0.00
10:36 am 10:36 Cloudy with Light Rain 41 5 37 2.8 86 86 NW 14 22 29.91 1013 10 16 0.01 0.25
10:53 am 10:53 Cloudy with Light Rain 41 5 37 2.8 86 86 NW 13 20 29.91 1013 10 16 0.01 0.25
11:53 am 11:53 Cloudy with Light Rain 42 5.6 37 2.8 82 82 NNW 14 22 29.91 1013 10 16 0.00 0.03
12:01 pm 12:01 Cloudy with Light Rain 42 5.6 37 2.8 82 82 NNW 12 19 29.91 1013 10 16 0.00 0.03
12:27 pm 12:27 Cloudy 45 7.2 38 3.3 77 77 NW 12 19 29.88 1012 10 16 0.00 0.03
12:53 pm 12:53 Mostly Cloudy 45 7.2 38 3.3 77 77 NW 14 22 29.89 1012 10 16 0.00 0.03
1:38 pm 13:38 Cloudy 46 8 36 2 66 66 NNW 10 17 29.88 1012 10 16 0.00 0.00
1:53 pm 13:53 Cloudy 47 8.3 35 1.7 63 63 NW 14 22 29.89 1012 10 16 0.00 0.00
2:43 pm 14:43 Cloudy 45 7.2 36 2.2 71 71 NW 9 15 29.88 1012 10 16 0.00 0.00
2:53 pm 14:53 Cloudy 46 7.8 36 2.2 68 68 NW 8 13 29.91 1013 10 16 0.00 0.00
3:06 pm 15:06 Cloudy 46 7.8 35 1.7 66 66 WNW 10 17 29.91 1013 10 16 0.00 0.00
3:53 pm 15:53 Mostly Sunny 46 7.8 36 2.2 68 68 WNW 10 17 29.91 1013 10 16 0.00 0.00
4:53 pm 16:53 Sunny 45 7.2 35 1.7 68 68 W 5 7 29.93 1014 10 16 0.00 0.00
5:53 pm 17:53 Clear 43 6.1 36 2.2 76 76 SW 5 7 29.96 1015 10 16 0.00 0.00
6:53 pm 18:53 Clear 37 2.8 33 0.6 86 86 Calm 29.99 1016 10 16 0.00 0.00
7:53 pm 19:53 Clear 37 2.8 33 0.6 86 86 Calm 30.01 1016 10 16 0.00 0.00
8:53 pm 20:53 Clear 32 0 29 -1.7 88 88 N 3 6 30.04 1017 10 16 0.00 0.00
9:53 pm 21:53 Clear 33 0.6 30 -1.1 89 89 NNW 5 7 30.05 1018 10 16 0.00 0.00
10:53 pm 22:53 Clear 30 -1.1 28 -2.2 92 92 NW 3 6 30.07 1018 10 16 0.00 0.00
11:53 pm 23:53 Clear 29 -1.7 27 -2.8 92 92 NW 5 7 30.09 1019 10 16 0.00 0.00

Powered by AerisWeather